Location: Bad Salzschlirf
(50.3750°N, 9.3000°E)
Time: 16:37:56
(UTC+01:00)

ISS - Pass Details

Date: 23 January 2020
Orbit: 415 x 421 km, 51.6° (Epoch: 18 January)

Event Time Altitude Azimuth Distance (km) Brightness Sun altitude
Rises 19:10:36 0° 235° (SW) 2,357 1.1 -20.5°
Reaches altitude 10° 19:12:43 10° 230° (SW) 1,495 -0.2 -20.9°
Enters shadow 19:15:21 42° 192° (SSW) 608 -2.9 -21.3°
